FW6302 Weather Reports


Display with metric or nautical units.
time (UTC)temp
F
wind
direction
speed
MPH
gust
MPH
rain 1hr
in
rain 24hr
in
rain mn
in
humidity
%
barometer
mb
20260906185521 70 32 10.0 20.0 0.00 0.00 0.00 88 1016.8
20260906185020 71 87 12.0 20.0 0.00 0.00 0.00 87 1017.1
20260906184521 71 89 12.0 19.0 0.00 0.00 0.00 86 1017.5
20260906184022 71 90 8.0 23.0 0.00 0.00 0.00 86 1017.7
20260906183517 71 56 15.0 27.0 0.00 0.00 0.00 86 1017.6
20260906183039 71 86 18.0 31.0 0.00 0.00 0.00 86 1017.6
20260906182515 72 101 17.0 31.0 0.00 0.00 0.00 86 1017.7
20260906182017 73 90 12.0 25.0 0.00 0.00 0.00 84 1017.4
20260906181516 75 79 19.0 29.0 0.00 0.00 0.00 80 1017.2
20260906181010 80 80 15.0 28.0 0.00 0.00 0.00 82 1017.1
20260906180511 81 51 6.0 12.0 0.00 0.00 0.00 85 1016.9
20260906180018 81 40 8.0 12.0 0.00 0.00 0.00 85 1016.7
20260906175508 81 40 7.0 11.0 0.00 0.00 0.00 85 1016.4
20260906175008 80 360 6.0 10.0 0.00 0.00 0.00 84 1016.2
20260906174506 80 333 5.0 9.0 0.00 0.00 0.00 85 1015.9
20260906174006 80 309 4.0 12.0 0.00 0.00 0.00 85 1015.7
20260906173506 80 327 5.0 14.0 0.00 0.00 0.00 85 1015.6
20260906173009 80 264 7.0 14.0 0.00 0.00 0.00 87 1015.5
20260906172504 80 276 7.0 13.0 0.00 0.00 0.00 86 1015.6
20260906172004 80 272 8.0 12.0 0.00 0.00 0.00 87 1015.6
20260906171516 80 255 6.0 12.0 0.00 0.00 0.00 87 1015.7
20260906171003 80 241 6.0 10.0 0.00 0.00 0.00 88 1015.7
20260906170503 80 238 7.0 12.0 0.00 0.00 0.00 87 1015.8
20260906170004 80 245 6.0 12.0 0.00 0.00 0.00 87 1015.8
20260906165603 80 248 5.0 8.0 0.00 0.00 0.00 88 1015.9
20260906165002 80 221 4.0 8.0 0.00 0.00 0.00 88 1016.1
20260906164502 80 173 4.0 8.0 0.00 0.00 0.00 88 1016.2
20260906164002 80 206 5.0 8.0 0.00 0.00 0.00 87 1016.3
20260906163502 80 225 4.0 7.0 0.00 0.00 0.00 88 1016.3
20260906163107 80 148 4.0 7.0 0.00 0.00 0.00 88 1016.2
20260906162601 80 163 4.0 10.0 0.00 0.00 0.00 89 1016.2
20260906162057 80 257 5.0 10.0 0.00 0.00 0.00 89 1016.2
20260906161601 80 155 5.0 8.0 0.00 0.00 0.00 89 1016.1
20260906161055 80 181 3.0 7.0 0.00 0.00 0.00 90 1015.9
20260906160553 80 146 4.0 7.0 0.00 0.00 0.00 90 1015.8
20260906160055 80 233 2.0 5.0 0.00 0.00 0.00 90 1015.7
20260906155556 80 197 1.0 4.0 0.00 0.00 0.00 91 1015.8
20260906155054 79 131 2.0 7.0 0.00 0.00 0.00 91 1015.7
20260906154550 79 113 4.0 7.0 0.00 0.00 0.00 91 1015.5
20260906154050 79 188 4.0 8.0 0.00 0.00 0.00 92 1015.4
20260906153549 79 155 5.0 8.0 0.00 0.00 0.00 92 1015.2
20260906153049 79 165 3.0 6.0 0.00 0.00 0.00 93 1015.1
20260906152548 79 130 3.0 7.0 0.00 0.00 0.00 92 1015.1
20260906152047 78 246 2.0 7.0 0.00 0.00 0.00 93 1015.1
20260906151546 78 108 3.0 6.0 0.00 0.00 0.00 93 1015.1
20260906151046 78 169 3.0 7.0 0.00 0.00 0.00 94 1015.2
20260906150544 78 194 5.0 7.0 0.00 0.00 0.00 94 1015.3
20260906150050 78 236 4.0 8.0 0.00 0.00 0.00 94 1015.3
20260906145544 78 208 4.0 8.0 0.00 0.08 0.00 94 1015.4
20260906145044 77 147 3.0 6.0 0.00 0.08 0.00 94 1015.1
20260906144548 77 82 3.0 8.0 0.00 0.08 0.00 94 1015.1
20260906144042 77 153 4.0 11.0 0.00 0.08 0.00 95 1015.2
20260906143546 77 157 3.0 12.0 0.00 0.08 0.00 95 1015.3
20260906143043 78 231 9.0 12.0 0.00 0.08 0.00 94 1015.9
20260906142541 78 191 6.0 10.0 0.00 0.08 0.00 94 1015.2
20260906142044 78 165 5.0 9.0 0.00 0.08 0.00 94 1015.0
20260906141543 77 161 4.0 9.0 0.00 0.08 0.00 95 1015.0
20260906141039 77 169 4.0 10.0 0.00 0.08 0.00 95 1015.1
20260906140542 77 152 6.0 10.0 0.00 0.08 0.00 95 1015.2
20260906140042 77 138 5.0 11.0 0.00 0.08 0.00 95 1015.2
20260906135537 77 189 7.0 11.0 0.00 0.19 0.00 96 1015.3
20260906135037 77 142 5.0 8.0 0.00 0.19 0.00 96 1015.2
20260906134541 77 165 5.0 9.0 0.00 0.19 0.00 96 1015.2
20260906134036 76 155 3.0 7.0 0.00 0.19 0.00 96 1015.2
20260906133535 76 156 3.0 7.0 0.00 0.19 0.00 96 1015.0
20260906133035 76 138 3.0 8.0 0.00 0.19 0.00 96 1015.0
20260906132534 76 152 3.0 7.0 0.00 0.19 0.00 96 1015.0
20260906132034 76 155 4.0 7.0 0.00 0.19 0.00 96 1015.0
20260906131536 76 172 1.0 7.0 0.00 0.19 0.00 96 1014.9
20260906131031 76 158 2.0 6.0 0.00 0.19 0.00 96 1014.9
20260906130532 76 158 2.0 7.0 0.00 0.19 0.00 97 1014.9
20260906130032 76 151 2.0 7.0 0.00 0.19 0.00 97 1014.8
20260906125532 76 143 2.0 5.0 0.00 0.28 0.00 97 1014.8
20260906125031 76 172 1.0 4.0 0.00 0.28 0.00 97 1014.9
20260906124531 76 140 1.0 5.0 0.00 0.28 0.00 97 1014.9
20260906124030 76 115 1.0 5.0 0.00 0.28 0.00 97 1014.9
20260906123531 75 136 2.0 5.0 0.00 0.28 0.00 97 1014.8
20260906123035 75 130 2.0 6.0 0.00 0.28 0.00 97 1014.8
20260906122533 75 124 2.0 6.0 0.00 0.28 0.00 97 1014.8
20260906122030 75 112 2.0 5.0 0.00 0.28 0.00 97 1014.7
20260906121540 75 136 1.0 3.0 0.00 0.28 0.00 97 1014.7
20260906121030 75 159 1.0 4.0 0.00 0.28 0.00 97 1014.7
20260906120529 75 117 1.0 4.0 0.00 0.28 0.00 97 1014.7
20260906120029 75 95 1.0 4.0 0.00 0.28 0.00 97 1014.6
20260906115528 75 124 0.0 4.0 0.00 0.42 0.00 97 1014.7
20260906115027 75 136 2.0 4.0 0.00 0.42 0.00 97 1014.6
20260906114531 75 137 2.0 4.0 0.00 0.42 0.00 97 1014.6
20260906114028 75 136 1.0 3.0 0.00 0.42 0.00 97 1014.6
20260906113527 75 131 1.0 3.0 0.00 0.42 0.00 97 1014.5
20260906113042 75 131 0.0 3.0 0.00 0.42 0.00 97 1014.4
20260906112526 75 150 1.0 3.0 0.00 0.42 0.00 97 1014.3
20260906112027 75 109 1.0 4.0 0.00 0.42 0.00 97 1014.3
20260906111527 75 110 2.0 4.0 0.00 0.42 0.00 97 1014.2
20260906111025 75 132 0.0 5.0 0.00 0.42 0.00 97 1014.2
20260906110525 75 125 2.0 5.0 0.00 0.42 0.00 97 1014.1
20260906110024 75 149 1.0 4.0 0.00 0.42 0.00 97 1014.1
20260906105525 75 120 2.0 3.0 0.00 0.42 0.00 97 1014.0
20260906105028 75 137 1.0 3.0 0.00 0.42 0.00 97 1014.1
20260906104529 75 137 0.0 3.0 0.00 0.42 0.00 97 1014.0
20260906104024 75 137 0.0 3.0 0.00 0.42 0.00 97 1014.0
20260906103527 75 137 1.0 3.0 0.00 0.42 0.00 97 1014.1
20260906103023 75 137 1.0 5.0 0.00 0.42 0.00 97 1014.1
20260906102524 75 99 1.0 5.0 0.00 0.42 0.00 97 1014.1
20260906102025 75 101 2.0 3.0 0.00 0.42 0.00 97 1014.1
20260906101523 75 103 1.0 3.0 0.00 0.42 0.00 97 1014.2
20260906101022 75 139 1.0 2.0 0.00 0.42 0.00 97 1014.1
20260906100524 75 139 0.0 2.0 0.00 0.42 0.00 97 1014.1
20260906100024 75 139 0.0 0.0 0.00 0.42 0.00 97 1014.1
20260906095522 75 139 0.0 2.0 0.00 0.44 0.00 97 1014.0
20260906095021 75 139 0.0 2.0 0.00 0.44 0.00 97 1014.0
20260906094521 75 139 0.0 2.0 0.00 0.44 0.00 97 1014.0
20260906094020 75 139 1.0 2.0 0.00 0.44 0.00 97 1014.1
20260906093521 75 139 1.0 3.0 0.00 0.44 0.00 97 1014.1
20260906093021 75 106 1.0 3.0 0.00 0.44 0.00 97 1014.1
20260906092520 75 177 1.0 2.0 0.00 0.44 0.00 97 1014.2
20260906092021 75 178 0.0 2.0 0.00 0.44 0.00 97 1014.2
20260906091531 75 177 0.0 1.0 0.00 0.44 0.00 97 1014.3
20260906091020 75 177 0.0 1.0 0.00 0.44 0.00 97 1014.3
20260906090519 75 178 0.0 1.0 0.00 0.44 0.00 97 1014.4
20260906090020 75 178 0.0 0.0 0.00 0.44 0.00 97 1014.4
20260906085525 75 177 0.0 2.0 0.00 0.44 0.00 96 1014.4
20260906085019 75 177 0.0 2.0 0.00 0.44 0.00 96 1014.4
20260906084519 75 178 1.0 3.0 0.00 0.44 0.00 97 1014.5
20260906084019 75 177 1.0 3.0 0.00 0.44 0.00 97 1014.6
20260906083523 75 178 0.0 0.0 0.00 0.44 0.00 97 1014.4
20260906083019 75 177 0.0 0.0 0.00 0.44 0.00 97 1014.3
20260906082518 75 177 0.0 0.0 0.00 0.44 0.00 97 1014.3
20260906082018 75 177 0.0 0.0 0.00 0.44 0.00 97 1014.2
20260906081530 75 177 0.0 2.0 0.00 0.44 0.00 97 1014.2
20260906081018 75 178 0.0 2.0 0.00 0.44 0.00 97 1014.2
20260906080519 75 177 0.0 2.0 0.00 0.44 0.00 97 1014.1
20260906080016 75 177 0.0 1.0 0.00 0.44 0.00 97 1014.0
20260906075516 75 177 0.0 1.0 0.00 0.44 0.00 97 1013.7
20260906075017 75 177 0.0 1.0 0.00 0.44 0.00 97 1013.7
20260906074520 75 177 0.0 1.0 0.00 0.44 0.00 97 1013.7
20260906074015 75 177 0.0 0.0 0.00 0.44 0.00 97 1013.8
20260906073514 75 177 0.0 0.0 0.00 0.44 0.00 96 1013.9
20260906073013 75 177 0.0 0.0 0.00 0.44 0.00 96 1013.9
20260906072513 75 177 0.0 1.0 0.00 0.44 0.00 96 1014.2
20260906072013 76 177 0.0 2.0 0.00 0.44 0.00 96 1014.2
20260906071512 76 177 0.0 2.0 0.00 0.44 0.00 96 1014.3
20260906071013 76 146 0.0 1.0 0.00 0.44 0.00 96 1014.2
20260906070511 76 146 0.0 1.0 0.00 0.44 0.00 96 1014.2
20260906070011 76 146 0.0 2.0 0.00 0.44 0.00 96 1014.2
20260906065512 76 146 0.0 3.0 0.00 0.44 0.00 96 1014.1
20260906065013 76 146 1.0 3.0 0.00 0.44 0.00 96 1014.1
20260906064510 76 146 0.0 3.0 0.00 0.44 0.00 96 1014.3
20260906064012 76 166 0.0 4.0 0.00 0.44 0.00 96 1014.3
20260906063511 76 150 1.0 4.0 0.00 0.44 0.00 97 1014.3
20260906063010 75 150 0.0 1.0 0.00 0.44 0.00 97 1014.4
20260906062509 75 150 0.0 1.0 0.00 0.44 0.00 97 1014.3
20260906062009 75 150 0.0 1.0 0.00 0.44 0.00 97 1014.3
20260906061509 75 150 0.0 1.0 0.00 0.44 0.00 96 1014.4
20260906061008 75 150 0.0 1.0 0.00 0.44 0.00 96 1014.5
20260906060508 76 150 0.0 1.0 0.00 0.44 0.00 96 1014.5
20260906060019 75 150 0.0 3.0 0.00 0.44 0.00 97 1014.5
20260906055507 75 343 0.0 1.0 0.00 0.44 0.00 96 1014.5
20260906055007 75 343 0.0 1.0 0.00 0.44 0.00 96 1014.5
20260906054507 75 343 0.0 1.0 0.00 0.44 0.00 96 1014.5
20260906054007 75 342 0.0 1.0 0.00 0.44 0.00 96 1014.6
20260906053506 75 343 0.0 1.0 0.00 0.44 0.00 96 1014.5
20260906053016 75 343 0.0 2.0 0.00 0.44 0.00 96 1014.5
20260906052507 75 343 0.0 3.0 0.00 0.44 0.00 95 1014.5
20260906052005 75 343 2.0 3.0 0.00 0.44 0.00 95 1014.4
20260906051505 75 326 1.0 2.0 0.00 0.44 0.00 95 1014.5
20260906051003 76 326 1.0 2.0 0.00 0.44 0.00 95 1014.5
20260906050502 76 4 0.0 1.0 0.00 0.44 0.00 94 1014.5
20260906050004 76 4 0.0 1.0 0.00 0.44 0.00 94 1014.4
20260906045501 76 4 0.0 1.0 0.00 0.44 0.44 94 1014.5
20260906045002 76 4 0.0 1.0 0.00 0.44 0.44 94 1014.5
20260906044502 76 4 0.0 2.0 0.00 0.44 0.44 94 1014.5
20260906044001 76 4 0.0 2.0 0.00 0.44 0.44 94 1014.4
20260906043500 76 4 1.0 1.0 0.00 0.44 0.44 94 1014.5
20260906043101 76 4 0.0 1.0 0.00 0.44 0.44 94 1014.5
20260906042602 76 325 0.0 1.0 0.00 0.44 0.44 94 1014.6
20260906042100 76 325 0.0 1.0 0.00 0.44 0.44 94 1014.5
20260906041600 76 325 0.0 1.0 0.00 0.44 0.44 94 1014.7
20260906041059 76 325 0.0 1.0 0.00 0.44 0.44 94 1014.6
20260906040559 76 325 0.0 1.0 0.00 0.44 0.44 94 1014.7
20260906040100 76 325 0.0 0.0 0.00 0.44 0.44 94 1014.6
20260906035559 75 325 0.0 0.0 0.00 0.44 0.44 94 1014.7
20260906035059 76 325 0.0 0.0 0.00 0.44 0.44 93 1014.6
20260906034559 76 325 0.0 0.0 0.00 0.44 0.44 93 1014.6
20260906034059 76 325 0.0 0.0 0.00 0.44 0.44 93 1014.6
20260906033558 76 325 0.0 0.0 0.00 0.44 0.44 93 1014.5
20260906033058 76 325 0.0 0.0 0.00 0.44 0.44 93 1014.4
20260906032558 76 325 0.0 1.0 0.00 0.44 0.44 92 1014.4
20260906032058 76 325 0.0 1.0 0.00 0.44 0.44 92 1014.5
20260906031604 76 325 0.0 2.0 0.00 0.44 0.44 91 1014.5
20260906031100 77 325 0.0 2.0 0.00 0.44 0.44 90 1014.4
20260906030558 77 326 0.0 2.0 0.00 0.44 0.44 91 1014.5
20260906030057 77 326 1.0 2.0 0.00 0.44 0.44 91 1014.4
20260906025557 76 1 1.0 2.0 0.00 0.44 0.44 92 1014.3
20260906025057 76 1 1.0 2.0 0.00 0.44 0.44 91 1014.4
20260906024558 77 4 0.0 3.0 0.00 0.44 0.44 91 1014.3
20260906024057 77 4 1.0 3.0 0.00 0.44 0.44 90 1014.2
20260906023557 77 25 0.0 4.0 0.00 0.44 0.44 89 1014.2
20260906023059 77 351 2.0 4.0 0.00 0.44 0.44 89 1014.2
20260906022556 77 13 0.0 2.0 0.00 0.44 0.44 89 1014.0
20260906022057 77 86 0.0 2.0 0.00 0.44 0.44 89 1014.0
20260906021601 77 86 0.0 2.0 0.00 0.44 0.44 89 1013.9
20260906021054 78 96 0.0 2.0 0.00 0.44 0.44 88 1013.9
20260906020555 78 96 1.0 3.0 0.00 0.44 0.44 87 1013.9
20260906015554 78 83 0.0 1.0 0.00 0.44 0.44 87 1013.9
20260906015054 78 83 0.0 2.0 0.00 0.44 0.44 86 1013.9
20260906014556 79 83 0.0 3.0 0.00 0.44 0.44 86 1013.7
20260906014054 79 83 0.0 3.0 0.00 0.44 0.44 85 1013.6
20260906013557 79 84 0.0 2.0 0.00 0.44 0.44 85 1013.5
20260906013054 79 84 0.0 3.0 0.00 0.44 0.44 85 1013.4
20260906012554 79 65 2.0 4.0 0.00 0.44 0.44 84 1013.3
20260906012054 80 71 2.0 4.0 0.00 0.44 0.44 84 1013.3
20260906011553 80 81 1.0 3.0 0.00 0.44 0.44 84 1013.3
20260906011053 80 79 1.0 4.0 0.00 0.44 0.44 83 1013.3
20260906010552 80 77 2.0 5.0 0.00 0.44 0.44 83 1013.3
20260906010053 80 89 2.0 5.0 0.00 0.44 0.44 82 1013.2
20260906005553 81 84 2.0 4.0 0.00 0.44 0.44 81 1013.1
20260906005052 81 105 1.0 4.0 0.00 0.44 0.44 80 1013.1
20260906004552 81 105 1.0 3.0 0.00 0.44 0.44 80 1013.1
20260906004052 82 124 1.0 4.0 0.00 0.44 0.44 79 1013.0
20260906003552 82 84 1.0 4.0 0.00 0.44 0.44 79 1012.9
20260906003052 82 127 1.0 3.0 0.00 0.44 0.44 78 1012.9
20260906002552 83 111 1.0 3.0 0.00 0.44 0.44 77 1012.9
20260906002052 83 129 0.0 5.0 0.00 0.44 0.44 76 1012.9
20260906001552 83 117 2.0 5.0 0.00 0.44 0.44 75 1012.8
20260906001051 83 126 3.0 6.0 0.00 0.44 0.44 74 1012.6
20260906000551 84 101 3.0 7.0 0.00 0.44 0.44 73 1012.7
20260906000053 85 127 3.0 7.0 0.00 0.44 0.44 73 1012.7
20260905235550 85 113 3.0 7.0 0.00 0.44 0.44 72 1012.6
20260905235050 85 122 3.0 8.0 0.00 0.44 0.44 72 1012.7
20260905234550 86 120 4.0 7.0 0.00 0.44 0.44 71 1012.6
20260905234050 86 158 4.0 9.0 0.00 0.44 0.44 71 1012.6
20260905233550 86 143 4.0 9.0 0.00 0.44 0.44 70 1012.7
20260905233051 87 135 3.0 9.0 0.00 0.44 0.44 70 1012.6
20260905232550 87 82 4.0 8.0 0.00 0.44 0.44 69 1012.6
20260905232050 87 113 4.0 10.0 0.00 0.44 0.44 69 1012.7
20260905231550 87 162 4.0 10.0 0.00 0.44 0.44 68 1012.6
20260905231048 87 133 5.0 12.0 0.00 0.44 0.44 67 1012.7
20260905230549 87 162 7.0 12.0 0.00 0.44 0.44 66 1012.6
20260905230053 87 107 6.0 12.0 0.00 0.44 0.44 67 1012.7
20260905225547 87 101 4.0 12.0 0.00 0.44 0.44 67 1012.6
20260905225047 88 129 5.0 11.0 0.00 0.44 0.44 66 1012.8
20260905224602 88 127 6.0 10.0 0.00 0.44 0.44 65 1012.7
20260905224047 88 113 6.0 11.0 0.00 0.44 0.44 64 1012.7
20260905223546 88 148 6.0 11.0 0.00 0.44 0.44 63 1012.7
20260905223148 88 117 4.0 9.0 0.00 0.44 0.44 63 1012.7
20260905222546 88 131 4.0 9.0 0.00 0.44 0.44 64 1012.6
20260905222046 88 95 4.0 13.0 0.00 0.44 0.44 63 1012.5
20260905221556 88 115 7.0 13.0 0.00 0.44 0.44 62 1012.5
20260905221045 88 138 6.0 14.0 0.00 0.44 0.44 61 1012.5
20260905220544 88 120 7.0 14.0 0.00 0.44 0.44 61 1012.3
20260905220053 88 143 3.0 14.0 0.00 0.44 0.44 62 1012.3
20260905215544 88 136 8.0 14.0 0.00 0.44 0.44 60 1012.3
20260905215043 88 146 5.0 11.0 0.00 0.44 0.44 60 1012.3
20260905214545 88 91 6.0 14.0 0.00 0.44 0.44 60 1012.3
20260905214043 88 135 6.0 14.0 0.00 0.44 0.44 60 1012.1
20260905213544 88 105 9.0 14.0 0.00 0.44 0.44 59 1012.2
20260905213049 88 161 7.0 16.0 0.00 0.44 0.44 59 1012.3
20260905212543 88 135 8.0 16.0 0.00 0.44 0.44 60 1012.4
20260905212043 88 141 6.0 18.0 0.00 0.44 0.44 60 1012.4
20260905211544 87 119 8.0 18.0 0.00 0.44 0.44 60 1012.3
20260905211041 87 127 7.0 19.0 0.00 0.44 0.44 60 1012.2
20260905210541 87 146 10.0 19.0 0.00 0.44 0.44 58 1012.3
20260905210042 88 164 11.0 15.0 0.00 0.44 0.44 57 1012.3
20260905205541 88 155 8.0 14.0 0.00 0.44 0.44 56 1012.3
20260905205041 89 156 5.0 11.0 0.00 0.44 0.44 58 1012.3
20260905204542 89 91 5.0 11.0 0.00 0.44 0.44 59 1012.3
20260905204041 88 163 5.0 11.0 0.00 0.44 0.44 59 1012.3
20260905203541 88 121 4.0 10.0 0.00 0.44 0.44 61 1012.2
20260905203100 88 94 4.0 11.0 0.00 0.44 0.44 61 1012.2
20260905202539 87 134 5.0 11.0 0.00 0.44 0.44 60 1012.2
20260905202040 87 166 4.0 11.0 0.00 0.44 0.44 60 1012.2
20260905201543 88 117 5.0 11.0 0.00 0.44 0.44 60 1012.2
20260905201038 88 95 6.0 11.0 0.00 0.44 0.44 60 1012.1
20260905200643 88 134 4.0 11.0 0.00 0.44 0.44 60 1012.0
20260905200050 89 113 3.0 9.0 0.00 0.44 0.44 60 1012.1
20260905195541 88 115 5.0 9.0 0.00 0.44 0.44 60 1012.0
20260905195037 88 124 3.0 9.0 0.00 0.44 0.44 60 1012.0
20260905194537 88 135 4.0 9.0 0.00 0.44 0.44 58 1012.0
20260905194036 88 56 5.0 11.0 0.00 0.44 0.44 61 1012.0
20260905193539 88 106 5.0 8.0 0.00 0.44 0.44 59 1012.0
20260905193034 88 162 5.0 9.0 0.00 0.44 0.44 59 1011.9
20260905192535 87 128 4.0 13.0 0.00 0.44 0.44 61 1011.9
20260905192033 87 125 8.0 13.0 0.00 0.44 0.44 59 1011.9
20260905191532 87 122 3.0 11.0 0.00 0.44 0.44 61 1011.8
20260905191031 86 108 5.0 10.0 0.00 0.44 0.44 62 1011.8
20260905190529 87 112 6.0 10.0 0.00 0.44 0.44 62 1011.8
20260905190029 86 109 4.0 9.0 0.00 0.44 0.44 62 1011.9